Location: Beddau
(51.5575°N, 3.3561°W)
Time: 12:54:24
(UTC+00:00)

Meteor 1-11 Rocket - Pass Details

Date: 03 March 2021
Orbit: 831 x 916 km, 81.2° (Epoch: 17 April)

Event Time Altitude Azimuth Distance (km) Brightness Sun altitude
Rises 19:25:01 0° 163° (SSE) 3,460 6.6 -14.4°
Reaches altitude 10° 19:27:38 10° 155° (SSE) 2,513 5.9 -14.8°
Maximum altitude 19:32:46 36° 91° (E) 1,335 4.2 -15.6°
Drops below altitude 10° 19:37:50 10° 27° (NNE) 2,481 6.0 -16.3°
Sets 19:40:24 0° 19° (NNE) 3,411 6.8 -16.7°
